Flugplatz Bürstadt (UL)

Hier findest Du alle Informationen zum Flugplatz Bürstadt (UL).

Informationen für Piloten zum Flugplatz Bürstadt

Hier findest Du alle relevanten Informationen, die Du als Pilot benötigst, um Bürstadt anzufliegen.

Flugplatz: Bürstadt ICAO-Code: UL Flugplatz
Frequenz Turm: 123,425 Mhz GAFOR Gebiet: 45
Frequenz Ground: 123,425 Mhz Mogas: nein
Platzrunde: N 1000 ft Landegebühr: -
Platzhöhe: - Sunrise: 05:13 Uhr UTC
Pisten: 03/21 - 276 / 330 m x 20 m, GRAS Sunset: 17:23 Uhr UTC

Mitglieder, die in Bürstadt fliegen

Flugwetter am Flugplatz Bürstadt

Die METAR Information stammen aus EDFM (20.53 km entfernt).

METAR Code:
2020/09/19 13:50
EDFM 191350Z 30004KT 230V350 CAVOK 25/06 Q1017

Flugschulen am Flugplatz Bürstadt

Am Flugplatz Bürstadt gibt es leider keine Flugschule.

Benachbarte Flugplätze und Flugschulen

Es gibt 24 weitere Flugplätze in einem Umkreis von 50 km um den Flugplatz Bürstadt.

Jetzt anmelden

Passwort vergessen

Umfrage Archiv

Wären Rettungsgeräte keine Pflicht mehr, würdet Ihr Euer UL trotzdem mit einem ausstatten?

Ja
85.6 %
Nein
14.4 %
Stimmen: 319 | Diskussion
Anzeige: Roland Aircraft
Statistik Alle Mitglieder

Aktuell sind 49 Besucher online, davon 3 Mitglieder und 46 Gäste.


Mitglieder online:
hennes  Dr. Speed  möchtesogern 

Anzeige: VFR Sprechfunk Simulator


Anzeige: Pocket FMS